Skip Page Navigation
NASA JPL Caltech
NASA Logo - Jet Propulsion Laboratory + View the NASA Portal
+ Center for Near-Earth Object Studies
JPL Home Earth Solar System Stars & Galaxies Technology
JPL Solar System Dynamics
BODIES ORBITS EPHEMERIDES TOOLS PHYSICAL DATA DISCOVERY FAQ SITE MAP
JPL Small-Body Database Browser
Search: [ help ]  
2700 Baikonur (1976 YP7)
Classification: Main-belt Asteroid          SPK-ID: 2002700
Ephemeris | Orbit Diagram | Orbital Elements | Mission Design | Physical Parameters | Discovery Circumstances | Close-Approach Data ]

[ show orbit diagram ]
Orbital Elements at Epoch 2459200.5 (2020-Dec-17.0) TDB
Reference: JPL 44 (heliocentric ecliptic J2000)
 Element Value Uncertainty (1-sigma)   Units 
e .04285447300286001 2.9449e-08  
a 2.906075226867974 1.0529e-08 au
q 2.78153690451388 8.9644e-08 au
i 2.406100209798839 3.0533e-06 deg
node 171.2432408031318 7.2746e-05 deg
peri 277.436503392024 8.1872e-05 deg
M 318.1496551929995 3.7368e-05 deg
tp 2459410.856165217827
(2021-Jul-15.35616522)
0.00018797 TDB
period 1809.500491038969
4.95
9.8335e-06
2.692e-08
d
yr
n .1989499321955404 1.0812e-09 deg/d
Q 3.030613549222068 1.098e-08 au
  Orbit Determination Parameters
   # obs. used (total)      3447  
   data-arc span      30280 days (82.90 yr)  
   first obs. used      1938-02-23  
   last obs. used      2021-01-18  
   planetary ephem.      DE431  
   SB-pert. ephem.      SB431-N16  
   condition code      0  
   norm. resid. RMS      .43372  
   source      ORB  
   producer      Otto Matic  
   solution date      2021-Feb-24 01:05:00  

Additional Information
 Earth MOID = 1.79897 au 
 Jupiter MOID = 2.05136 au 
 T_jup = 3.282 
[ show covariance matrix ]

Ephemeris | Orbit Diagram | Orbital Elements | Mission Design | Physical Parameters | Discovery Circumstances | Close-Approach Data ]

Physical Parameter Table
Parameter Symbol Value Units Sigma Reference Notes
absolute magnitude H 12.06   n/a E2021B10  
diameter diameter 11.678 km 0.207 urn:nasa:pds:neowise_diameters_albedos::2.0[mainbelt] (http://adsabs.harvard.edu/abs/2011ApJ...741...68M)  
rotation period rot_per 10.566 h n/a LCDB (Rev. 2020-October); Warner et al., 2009 Result based on less than full coverage, so that the period may be wrong by 30 percent or so.
Published Reference List:
[Waszczak, A.; Chang, C.-K.; Ofeck, E.O.; Laher, F.; et al. (2015) Astron. J. 150, A75.]
[Durech, J.; Hanus, J.; Ali-Lagoa, V. (2018) Astron. Astrophys. 617, A57.]
geometric albedo albedo 0.187   0.026 urn:nasa:pds:neowise_diameters_albedos::2.0[mainbelt] (http://adsabs.harvard.edu/abs/2011ApJ...741...68M)  

2700 Baikonur (1976 YP7)          Discovered 1976-Dec-20 by Chernykh, N. at Nauchnyj
Reference: DISCOVERY.DBLast Updated: 2003-08-29

[ hide close-approach data ]
Close-Approach Data   ...sorted by Date/Time (TDB)
Date/Time (TDB) Time Uncertainty
(days_HH:MM)
Body Nominal Distance (au) Minimum Distance (au) Maximum Distance (au) V-relative (km/s) V-infinity (km/s) JD (TDB) Time Uncertainty (minutes) Semi-major axis (km) Semi-minor axis (km) range-LOV angle (deg) N-sigma BP Orbit Ref. Reference Modified
2081-Feb-17 19:35 < 00:01 Psych 0.0441676932077939 0.0441588300466772 0.0441765564203851 2.5080974918164 2.50809738259593 2481178.315733353 0.63224160707325 447.744383797456 39.2686056343863 -9.85337934479325 32180.7962330428 T 44 CATAB v2.0f-lin.ifort 2021-Feb-24 01:05:09 2021-Feb-24 01:05

Alternate Designations
 1976 YP7 = 1938 DU1 = 1951 XZ = 1973 FS1 
Ephemeris | Orbit Diagram | Orbital Elements | Mission Design | Physical Parameters | Discovery Circumstances | Close-Approach Data ]
ABOUT SSD CREDITS/AWARDS PRIVACY/COPYRIGHT GLOSSARY LINKS
FirstGov 2021-Feb-25 05:32 UT
(server date/time)  
NASA Home Page
Site Manager:   Ryan S. Park
Webmaster  Alan B. Chamberlin